FW1856 Weather Reports


time (UTC)temp
C
wind
direction
speed
KPH
gust
KPH
rain 1hr
cm
rain 24hr
cm
rain mn
cm
humidity
%
barometer
mb
20260906231144 23 229 3.2 17.7 0.00 0.00 0.00 55 1014.0
20260906230123 23 272 4.8 20.9 0.00 0.00 0.00 55 1014.1
20260906225144 22 213 8.0 25.7 0.00 0.00 0.00 57 1014.1
20260906224144 22 242 4.8 25.7 0.00 0.00 0.00 57 1014.2
20260906223123 22 302 6.4 30.6 0.00 0.00 0.00 57 1014.3
20260906222123 22 284 3.2 9.7 0.00 0.00 0.00 58 1014.3
20260906221125 22 256 4.8 20.9 0.00 0.00 0.00 60 1014.4
20260906220123 22 240 4.8 20.9 0.00 0.00 0.00 59 1014.4
20260906215123 22 299 4.8 20.9 0.00 0.00 0.00 61 1014.3
20260906214123 22 320 3.2 20.9 0.00 0.00 0.00 62 1014.5
20260906213124 22 331 6.4 22.5 0.00 0.00 0.00 64 1014.6
20260906212123 22 352 9.7 25.7 0.00 0.00 0.00 65 1014.7
20260906211124 22 324 6.4 22.5 0.00 0.00 0.00 67 1014.7
20260906210123 22 328 6.4 25.7 0.00 0.00 0.00 65 1014.8
20260906205123 21 310 8.0 29.0 0.00 0.00 0.00 65 1014.9
20260906204144 21 335 8.0 25.7 0.00 0.00 0.00 68 1015.1
20260906203123 21 355 12.9 30.6 0.00 0.00 0.00 66 1015.2
20260906202123 21 355 9.7 29.0 0.00 0.00 0.00 67 1015.3
20260906201123 21 320 6.4 20.9 0.00 0.00 0.00 68 1015.4
20260906200123 21 343 9.7 25.7 0.00 0.00 0.00 65 1015.4
20260906195124 21 340 8.0 22.5 0.00 0.00 0.00 66 1015.5
20260906194144 20 314 4.8 22.5 0.00 0.00 0.00 68 1015.7
20260906193125 20 325 4.8 22.5 0.00 0.00 0.00 71 1015.7
20260906192123 20 334 8.0 30.6 0.00 0.00 0.00 68 1015.8
20260906191123 20 318 8.0 25.7 0.00 0.00 0.00 64 1015.8
20260906190123 20 331 6.4 29.0 0.00 0.00 0.00 64 1016.0
20260906185144 20 348 6.4 25.7 0.00 0.00 0.00 63 1016.1
20260906184123 20 347 8.0 22.5 0.00 0.00 0.00 63 1016.3
20260906183123 18 313 8.0 30.6 0.00 0.00 0.00 65 1016.3
20260906182123 18 307 4.8 22.5 0.00 0.00 0.00 67 1016.4
20260906181123 18 311 4.8 30.6 0.00 0.00 0.00 67 1016.5
20260906180126 18 310 6.4 25.7 0.00 0.00 0.00 69 1016.6
20260906175123 18 330 4.8 22.5 0.00 0.00 0.00 70 1016.5
20260906174123 17 316 9.7 29.0 0.00 0.00 0.00 70 1016.6
20260906173123 17 319 8.0 33.8 0.00 0.00 0.00 70 1016.7
20260906172144 18 309 11.3 37.0 0.00 0.00 0.00 67 1016.8
20260906171123 17 314 4.8 25.7 0.00 0.00 0.00 68 1016.9
20260906170123 17 228 0.0 9.7 0.00 0.00 0.00 69 1016.9
20260906165144 17 242 1.6 9.7 0.00 0.00 0.00 69 1017.0
20260906164124 17 72 1.6 8.0 0.00 0.00 0.00 69 1017.2
20260906163123 16 84 1.6 4.8 0.00 0.00 0.00 71 1017.2
20260906162123 16 79 1.6 4.8 0.00 0.00 0.00 72 1017.1
20260906161144 16 35 0.0 4.8 0.00 0.00 0.00 72 1017.2
20260906160124 15 110 3.2 8.0 0.00 0.00 0.00 75 1017.2
20260906155123 15 107 4.8 16.1 0.00 0.00 0.00 77 1017.2
20260906154123 15 89 1.6 8.0 0.00 0.00 0.00 79 1017.2
20260906153123 14 89 3.2 8.0 0.00 0.00 0.00 80 1017.3
20260906152123 14 99 3.2 8.0 0.00 0.00 0.00 81 1017.3
20260906151144 13 93 1.6 8.0 0.00 0.00 0.00 83 1017.3
20260906150123 13 122 0.0 0.0 0.00 0.00 0.00 86 1017.3
20260906145123 12 121 0.0 0.0 0.00 0.00 0.00 88 1017.2
20260906144123 12 154 0.0 0.0 0.00 0.00 0.00 90 1017.2
20260906143123 11 152 0.0 0.0 0.00 0.00 0.00 91 1017.2
20260906142144 11 154 0.0 0.0 0.00 0.00 0.00 91 1017.1
20260906141123 11 153 0.0 0.0 0.00 0.00 0.00 92 1017.0
20260906140123 11 154 0.0 0.0 0.00 0.00 0.00 91 1017.0
20260906135124 11 154 0.0 0.0 0.00 0.00 0.00 91 1017.0
20260906134123 11 154 0.0 0.0 0.00 0.00 0.00 91 1016.9
20260906133123 11 156 0.0 0.0 0.00 0.00 0.00 91 1016.9
20260906132123 11 156 0.0 0.0 0.00 0.00 0.00 91 1016.8
20260906131123 11 156 0.0 0.0 0.00 0.00 0.00 91 1016.8
20260906130123 11 154 0.0 0.0 0.00 0.00 0.00 90 1016.9
20260906125123 11 155 0.0 0.0 0.00 0.00 0.00 90 1016.9
20260906124123 11 156 0.0 0.0 0.00 0.00 0.00 90 1016.9
20260906123123 11 154 0.0 0.0 0.00 0.00 0.00 90 1017.0
20260906122123 11 154 0.0 0.0 0.00 0.00 0.00 90 1017.0
20260906121123 11 156 0.0 0.0 0.00 0.00 0.00 90 1017.0
20260906120123 11 156 0.0 0.0 0.00 0.00 0.00 91 1017.0
20260906115123 11 155 0.0 0.0 0.00 0.00 0.00 91 1016.9
20260906114144 11 155 0.0 0.0 0.00 0.00 0.00 91 1016.8
20260906113123 11 156 0.0 0.0 0.00 0.00 0.00 90 1016.7
20260906112145 11 154 0.0 0.0 0.00 0.00 0.00 91 1016.7
20260906111123 11 156 0.0 0.0 0.00 0.00 0.00 90 1016.8
20260906110144 11 156 0.0 0.0 0.00 0.00 0.00 90 1016.8
20260906105144 12 155 0.0 0.0 0.00 0.00 0.00 90 1016.8
20260906104123 12 154 0.0 0.0 0.00 0.00 0.00 90 1016.8
20260906103144 12 156 0.0 0.0 0.00 0.00 0.00 90 1016.9
20260906102144 12 155 0.0 0.0 0.00 0.00 0.00 90 1016.9
20260906101123 12 156 0.0 0.0 0.00 0.00 0.00 89 1017.0
20260906100144 12 156 0.0 0.0 0.00 0.00 0.00 89 1017.0
20260906095123 12 156 0.0 0.0 0.00 0.00 0.00 88 1017.1
20260906094123 12 156 0.0 0.0 0.00 0.00 0.00 88 1017.1
20260906093123 12 156 0.0 0.0 0.00 0.00 0.00 87 1017.1
20260906092123 12 155 0.0 0.0 0.00 0.00 0.00 87 1017.1
20260906091124 13 154 0.0 0.0 0.00 0.00 0.00 86 1017.3
20260906090145 13 156 0.0 0.0 0.00 0.00 0.00 86 1017.4
20260906085123 13 155 0.0 0.0 0.00 0.00 0.00 86 1017.3
20260906084123 13 154 0.0 0.0 0.00 0.00 0.00 85 1017.4
20260906083123 13 156 0.0 0.0 0.00 0.00 0.00 84 1017.5
20260906082123 13 155 0.0 0.0 0.00 0.00 0.00 83 1017.5
20260906081144 13 155 0.0 0.0 0.00 0.00 0.00 82 1017.4
20260906080123 14 155 0.0 0.0 0.00 0.00 0.00 82 1017.5
20260906075144 15 88 0.0 0.0 0.00 0.00 0.00 80 1017.4
20260906074123 15 88 0.0 4.8 0.00 0.00 0.00 80 1017.3
20260906073144 15 84 1.6 9.7 0.00 0.00 0.00 79 1017.4
20260906072144 15 75 0.0 0.0 0.00 0.00 0.00 80 1017.3
20260906071123 15 75 0.0 0.0 0.00 0.00 0.00 79 1017.4
20260906070123 15 71 0.0 9.7 0.00 0.00 0.00 80 1017.4
20260906065123 15 96 1.6 8.0 0.00 0.00 0.00 81 1017.5
20260906064144 14 93 3.2 8.0 0.00 0.00 0.00 82 1017.5
20260906063123 14 92 0.0 0.0 0.00 0.00 0.00 82 1017.3
20260906062123 15 93 0.0 0.0 0.00 0.00 0.00 82 1017.4
20260906061123 15 93 1.6 4.8 0.00 0.00 0.00 81 1017.3
20260906060123 15 90 0.0 0.0 0.00 0.00 0.00 81 1017.4
20260906055122 15 92 0.0 3.2 0.00 0.00 0.00 81 1017.4
20260906054123 15 93 0.0 4.8 0.00 0.00 0.00 80 1017.3
20260906053123 16 83 1.6 8.0 0.00 0.00 0.00 79 1017.4
20260906052122 15 99 3.2 8.0 0.00 0.00 0.00 81 1017.4
20260906051144 15 100 0.0 4.8 0.00 0.00 0.00 82 1017.4
20260906050123 16 103 1.6 8.0 0.00 0.00 0.00 82 1017.5
20260906045123 16 72 0.0 4.8 0.00 0.00 0.00 81 1017.5
20260906044123 16 354 0.0 3.2 0.00 0.00 0.00 81 1017.5
20260906043144 16 356 0.0 4.8 0.00 0.00 0.00 83 1017.6
20260906042123 15 300 0.0 0.0 0.00 0.00 0.00 83 1017.6
20260906041123 16 299 0.0 0.0 0.00 0.00 0.00 82 1017.6
20260906040123 16 311 0.0 4.8 0.00 0.00 0.00 81 1017.6
20260906035144 16 313 1.6 4.8 0.00 0.00 0.00 81 1017.5
20260906034144 16 299 0.0 3.2 0.00 0.00 0.00 80 1017.5
20260906033123 16 299 0.0 3.2 0.00 0.00 0.00 79 1017.3
20260906032122 16 313 1.6 4.8 0.00 0.00 0.00 78 1017.4
20260906031123 17 204 0.0 3.2 0.00 0.00 0.00 76 1017.4
20260906030123 17 251 1.6 8.0 0.00 0.00 0.00 74 1017.3
20260906025122 17 224 1.6 8.0 0.00 0.00 0.00 72 1017.6
20260906024123 17 225 1.6 8.0 0.00 0.00 0.00 71 1017.4
20260906023123 18 314 0.0 4.8 0.00 0.00 0.00 72 1017.4
20260906022123 18 309 1.6 8.0 0.00 0.00 0.00 71 1017.4
20260906021122 18 347 4.8 12.9 0.00 0.00 0.00 69 1017.4
20260906020123 18 335 3.2 12.9 0.00 0.00 0.00 66 1017.2
20260906015122 19 300 3.2 9.7 0.00 0.00 0.00 64 1017.1
20260906014144 19 341 4.8 20.9 0.00 0.00 0.00 65 1017.1
20260906013123 19 310 4.8 9.7 0.00 0.00 0.00 63 1016.9
20260906012144 20 301 1.6 9.7 0.00 0.00 0.00 57 1016.7
20260906011123 20 218 4.8 17.7 0.00 0.00 0.00 53 1016.7
20260906010122 21 307 8.0 25.7 0.00 0.00 0.00 53 1016.6
20260906005123 21 305 6.4 25.7 0.00 0.00 0.00 54 1016.6
20260906004123 21 311 6.4 22.5 0.00 0.00 0.00 53 1016.6
20260906003123 21 318 6.4 20.9 0.00 0.00 0.00 54 1016.6
20260906002144 21 333 4.8 20.9 0.00 0.00 0.00 57 1016.6
20260906001122 21 310 8.0 30.6 0.00 0.00 0.00 56 1016.6
20260906000123 21 304 11.3 29.0 0.00 0.00 0.00 52 1016.6
20260905235144 21 323 8.0 25.7 0.00 0.00 0.00 55 1016.7
20260905234123 22 339 8.0 25.7 0.00 0.00 0.00 55 1016.7
20260905233123 22 64 3.2 17.7 0.00 0.00 0.00 53 1016.7
20260905232143 22 343 3.2 16.1 0.00 0.00 0.00 57 1016.7